Probability
0 0 0 0 0 0 0 0 0 0 0 0 0 0 0 0 0 0 0 0 0 0 0 0 0 0 0 0 0 0 0 3 3 0 0 0 0 0
0 0 0 0 0 0 0 0 0 0 0 0 0 0 0 0 0 0 0 0 0 0 0 0 0 0 0 0 0 0 0 0 0 0 0 0 0 0
0 0 0 0 0 0 0 0 0 0 0 0 0 0 0 0 0 0 0 0 0 0 0 0 0 0 0 0 0 0 0 0 0 0 0 0 0 0
0 0 0 0 0 0 0 0 0 0 0 0 0 0 0 0 0 0 0 0 0 0 0 0 0 0 0 0 0 0 0 0 0 0 0 0 0 0
0 0 0 0 0 0 0 0 0 0 0 0 0 0 0 0 0 0 0 0 0 0 0 0 0 0 0 0 0 0 0 0 0 0 0 0 0 0
0 0 0 0 0 0 0 0 0 0 0 0 0 0 0 0 0 0 0 0 0 0 0 0 0 0 0 0 0 0 0 0 0 0 0 0 0 0
0 0 0 0 0 0 0 0 0 0 0 0 0 0 0 0 0 0 0 0 0 0 0 0 0 0 0 0 0 0 0 0 0 0 0 0 0 0
0 0 0 0 0 0 0 0 0 0 0 0 0 0 0 0 0 0 0 0 0 0 0 0 0 0 0 0 0 0 0 0 0 0 0 0 0 0
0 0 0 0 0 0 0 0 0 0 0 0 0 0 0 0 0 0 0 0 0 0 0 0 0 0 0 0 0 0 0 0 0 0 0 0 0 0
0 0 0 0 0 0 0 0 0 0 0 0 0 0 0 0 0 0 0 0 0 0 0 0 0 0 0 0 0 0 0 0 0 0 0 0 0 0
0 0 0 0 0 0 0 0 0 0 0 0 0 0 0 0 0 0 0 0 0 0 0 0 0 0 0 0 0 0 0 0 0 0 0 0 0 0
0 0 0 0 0 0 0 0 0 0 0 0 0 0 0 0 0 0 0 0 0 0 0 0 0 0 0 0 0 0 0 0 0 0 0 0 0 0
0 0 0 0 0 0 0 0 0 0 0 0 0 0 0 0 0 0 0 0 0 0 0 0 0 0 0 0 0 0 0 0 0 0 0 0 0 0
0 0 0 0 0 0 0 0 0 0 0 0 0 0 0 0 0 0 0 0 0 0 0 0 0 0 0 0 0 0 0 0 0 0 0 0 0 0
0 0 0 0 0 0 0 0 0 0 0 0 0 0 0 0 0 0 0 0 0 0 0 0 0 0 0 0 0 0 0 0 0 0 0 0 0 0
0 0 0 0 0 0 0 0 0 0 0 0 0 0 0 0 0 0 0 0 0 0 0 0 0 0 0 0 0 0 0 0 0 0 0 0 0 0
0 0 0 0 0 0 0 0 0 0 0 0 0 0 0 0 0 0 0 0 0 0 0 0 0 0 0 0 0 0 0 0 0 0 0 0 0 0
0 0 0 0 0 0 0 0 0 0 0 0 0 0 0 0 0 0 0 0 0 0 0 0 0 0 0 0 0 0 0 0 0 0 0 0 0 0
0 0 0 0 0 0 0 0 0 0 0 0 0 0 0 0 0 0 0 0 0 0 0 0 0 0 0 0 0 0 0 0 0 0 0 0 0 0
0 0 0 0 0 0 0 0 0 0 0 0 0 0 0 0 0 0 0 0 0 0 0 0 0 0 0 0 0 0 0 0 0 0 0 0 0 0
0 0 0 0 0 0 0 0 0 0 0 0 0 0 0 0 0 0 0 0 0 0 0 0 0 0 0 0 0 0 0 0 0 0 0 0 0 0
0 0 0 0 0 0 0 0 0 0 0 0 0 0 0 0 0 0 0 0 0 0 0 0 0 0 0 0 0 0 0 0 0 0 0 0 0 0
0 0 0 0 0 0 0 0 0 0 0 0 0 0 0 0 0 0 0 0 0 0 0 0 0 0 0 0 0 0 0 0 0 0 0 0 0 0
Height
5826 5826 5825 5824 5823 5823 5822 5822 5822 5820 5820 5818 5817 5816 5815 5815 5814 5814 5813 5813 5812 5812 5811 5810 5809 5808 5807 5807 5806 5805 5804 5803 5803 5802 5801 5800 5799 5798
5823 5823 5822 5821 5820 5819 5819 5818 5817 5817 5816 5814 5813 5812 5811 5810 5810 5810 5809 5809 5808 5808 5807 5806 5805 5804 5803 5803 5802 5800 5800 5799 5797 5796 5795 5794 5793 5792
5819 5819 5818 5818 5817 5816 5815 5814 5813 5812 5811 5810 5809 5808 5807 5806 5806 5805 5805 5805 5804 5803 5803 5802 5801 5800 5799 5798 5797 5796 5794 5793 5792 5790 5789 5788 5787 5786
5815 5815 5814 5814 5813 5812 5811 5810 5809 5808 5807 5806 5805 5803 5803 5802 5801 5801 5801 5800 5799 5799 5798 5798 5797 5796 5795 5793 5792 5791 5789 5787 5786 5784 5783 5782 5781 5779
5811 5810 5810 5809 5809 5808 5807 5806 5805 5804 5803 5802 5801 5799 5799 5798 5797 5797 5796 5796 5795 5794 5793 5793 5792 5791 5790 5788 5787 5786 5784 5782 5781 5779 5777 5776 5774 5773
5806 5806 5805 5805 5805 5804 5803 5802 5801 5800 5799 5798 5796 5795 5794 5794 5793 5792 5792 5791 5790 5789 5788 5787 5786 5785 5784 5783 5782 5780 5779 5777 5775 5773 5772 5770 5768 5767
5802 5801 5801 5801 5800 5800 5799 5799 5797 5796 5795 5794 5792 5791 5790 5789 5788 5787 5787 5786 5785 5784 5783 5781 5780 5779 5778 5777 5776 5774 5773 5771 5769 5768 5766 5764 5762 5760
5797 5797 5796 5796 5795 5795 5795 5794 5793 5792 5791 5789 5788 5787 5786 5784 5783 5782 5781 5780 5779 5778 5777 5776 5774 5773 5772 5771 5770 5769 5767 5766 5764 5762 5760 5758 5756 5754
5792 5792 5791 5791 5791 5791 5790 5790 5789 5787 5786 5785 5784 5782 5781 5780 5778 5777 5775 5774 5774 5772 5771 5770 5768 5767 5766 5765 5764 5763 5761 5760 5758 5757 5755 5753 5750 5748
5787 5787 5787 5786 5786 5786 5785 5785 5783 5782 5781 5780 5779 5777 5776 5774 5773 5772 5770 5769 5768 5766 5765 5763 5762 5761 5760 5759 5758 5757 5755 5754 5752 5750 5748 5746 5744 5742
5782 5782 5782 5781 5781 5781 5780 5779 5778 5777 5776 5774 5773 5772 5770 5769 5767 5766 5764 5763 5762 5760 5758 5757 5756 5755 5754 5752 5751 5750 5749 5747 5746 5744 5742 5740 5738 5736
5776 5776 5776 5776 5776 5775 5774 5774 5773 5772 5770 5769 5768 5767 5765 5763 5762 5760 5758 5757 5755 5754 5752 5751 5749 5748 5747 5746 5744 5743 5742 5740 5739 5737 5735 5733 5731 5729
5771 5770 5770 5770 5769 5769 5768 5768 5767 5766 5764 5763 5762 5761 5759 5758 5756 5754 5752 5750 5748 5747 5746 5744 5743 5741 5740 5739 5738 5736 5735 5733 5732 5730 5728 5726 5724 5722
5765 5764 5764 5764 5763 5762 5762 5761 5760 5759 5758 5757 5756 5755 5753 5752 5750 5748 5746 5744 5742 5740 5738 5737 5736 5734 5733 5731 5730 5729 5727 5726 5724 5722 5720 5718 5716 5714
5758 5757 5757 5757 5756 5756 5755 5754 5754 5753 5752 5751 5750 5748 5747 5745 5743 5741 5739 5737 5735 5733 5731 5730 5728 5727 5725 5724 5723 5721 5720 5718 5716 5715 5713 5711 5709 5707
5750 5750 5750 5750 5749 5749 5748 5748 5747 5746 5745 5744 5742 5741 5739 5737 5736 5734 5732 5730 5728 5726 5724 5722 5721 5720 5718 5717 5715 5713 5712 5711 5709 5707 5705 5703 5701 5698
5743 5743 5743 5742 5742 5741 5741 5740 5739 5738 5737 5736 5734 5733 5732 5730 5728 5726 5724 5722 5721 5719 5717 5715 5713 5712 5710 5709 5707 5706 5704 5702 5700 5699 5697 5695 5692 5689
5736 5735 5735 5735 5734 5734 5733 5732 5731 5730 5729 5728 5726 5725 5723 5722 5720 5718 5716 5715 5713 5711 5709 5708 5706 5704 5703 5701 5700 5698 5696 5694 5692 5690 5688 5686 5684 5681
5727 5727 5727 5727 5726 5726 5725 5724 5723 5722 5721 5719 5718 5716 5715 5713 5712 5710 5708 5707 5705 5703 5701 5699 5697 5696 5695 5694 5692 5689 5687 5685 5683 5681 5679 5676 5674 5671
5719 5718 5718 5718 5718 5717 5716 5715 5714 5713 5711 5710 5709 5708 5706 5705 5703 5702 5700 5698 5697 5695 5693 5691 5689 5687 5686 5685 5683 5681 5678 5675 5673 5671 5669 5666 5664 5661
5709 5709 5709 5709 5709 5708 5707 5706 5704 5703 5702 5701 5700 5699 5697 5696 5694 5693 5691 5689 5688 5686 5684 5682 5680 5678 5676 5674 5673 5671 5669 5666 5663 5661 5658 5656 5653 5651
5700 5700 5700 5699 5699 5698 5697 5696 5695 5694 5692 5691 5690 5689 5688 5686 5685 5684 5682 5680 5678 5677 5675 5673 5671 5668 5666 5665 5663 5661 5659 5656 5653 5650 5647 5645 5642 5640
5690 5690 5689 5689 5689 5688 5687 5687 5685 5684 5683 5682 5681 5679 5678 5677 5675 5674 5673 5671 5669 5667 5665 5663 5661 5659 5657 5655 5653 5651 5649 5646 5643 5640 5638 5634 5632 5629
Wind_Speed
13 13 13 13 13 13 13 13 13 13 14 14 15 15 15 15 15 15 15 15 15 15 14 15 15 14 15 16 16 17 18 18 19 19 19 20 21 21
14 14 14 14 14 14 14 14 14 15 15 15 16 16 16 16 16 15 15 15 15 15 14 14 14 15 15 16 17 17 18 19 19 20 21 21 20 20
15 16 16 15 14 14 14 14 15 15 16 16 16 15 15 15 16 16 15 15 16 16 15 15 15 15 16 16 16 17 18 19 20 20 21 21 21 21
16 16 16 16 15 15 15 15 16 16 16 16 16 15 15 16 16 16 15 16 16 16 16 16 16 16 16 16 17 18 18 19 19 19 20 20 20 21
16 16 16 16 15 15 15 16 16 16 16 16 16 16 16 16 16 16 16 16 17 17 17 17 17 17 17 18 18 19 19 19 19 20 20 20 21 21
17 17 17 16 16 15 15 16 17 16 16 16 16 16 16 16 16 16 16 17 18 18 18 18 18 19 18 19 19 19 19 20 20 20 20 21 21 21
17 17 17 16 16 15 15 16 16 16 16 16 16 15 16 16 16 16 17 18 18 19 19 19 20 20 19 19 19 19 19 19 19 20 20 21 21 22
17 17 17 17 16 16 16 16 17 17 16 16 16 16 16 16 17 17 18 18 18 19 20 20 20 19 19 19 19 19 19 19 20 20 20 21 21 22
17 17 16 16 16 17 17 17 17 17 17 17 17 17 17 17 17 18 18 18 18 19 19 19 19 19 19 20 20 20 20 20 20 21 21 21 22 22
18 16 16 17 18 18 18 18 18 18 18 18 17 17 17 17 18 18 18 19 19 20 20 20 20 20 20 20 20 20 21 21 21 22 22 22 22 23
18 17 17 18 18 19 19 19 19 19 18 18 18 17 17 17 18 19 19 20 20 21 21 21 21 21 21 21 21 22 22 21 21 22 23 23 23 24
19 19 19 20 20 20 20 20 19 19 19 18 18 18 18 18 19 20 20 21 22 21 21 21 21 21 21 22 22 23 22 22 23 23 23 23 24 24
20 20 21 21 21 20 20 20 20 20 19 19 19 19 19 20 20 21 22 22 22 22 21 21 21 22 22 22 22 22 23 23 23 24 24 24 24 25
21 21 22 22 22 22 22 21 21 21 20 21 21 21 21 21 21 22 22 23 23 23 22 22 23 22 22 23 23 23 24 24 25 25 25 25 26 26
22 22 22 22 22 22 23 23 22 22 22 22 22 23 23 23 23 23 23 23 24 23 24 24 23 23 24 24 24 24 24 25 25 25 26 26 27 27
23 23 23 23 23 23 23 24 24 24 23 23 23 23 24 24 25 25 24 24 24 24 24 24 24 24 25 24 24 25 25 25 26 26 27 27 28 29
24 24 24 24 25 25 24 25 26 26 25 25 25 25 25 25 25 25 25 25 25 25 25 25 25 26 26 25 25 26 27 27 27 27 28 29 29 30
26 25 25 26 26 26 26 26 27 27 27 27 27 27 26 26 26 26 27 26 26 26 26 26 26 26 26 26 26 27 28 28 29 29 30 30 31 31
27 26 26 26 26 26 27 27 28 28 29 28 28 27 27 27 26 26 27 27 27 27 27 26 27 26 26 26 27 29 29 29 30 31 31 31 32 32
26 27 27 27 27 27 28 28 29 29 29 29 29 28 28 28 27 27 27 27 27 28 28 28 28 28 28 28 28 29 30 31 32 32 32 32 32 33
28 28 28 28 28 28 28 29 29 29 29 29 29 28 28 28 29 28 28 27 28 29 29 28 29 29 29 29 29 30 31 32 33 33 33 33 33 33
29 29 29 29 28 28 29 29 29 29 29 29 29 29 29 29 29 29 29 28 29 29 29 30 30 30 30 30 30 30 31 32 32 33 33 33 34 33
30 30 30 29 29 29 29 29 29 28 28 29 29 30 30 30 30 29 29 29 29 30 30 30 30 30 29 30 30 30 31 31 32 33 33 33 34 34
Wind_Direction
285 288 290 291 289 285 287 288 288 287 288 290 288 287 286 283 284 284 285 285 287 286 284 285 287 285 283 283 284 285 287 286 286 287 288 286 282 281
283 286 288 288 286 288 288 289 289 288 289 290 289 287 288 284 284 284 284 284 284 285 284 286 288 289 287 286 287 287 287 286 286 288 288 286 285 284
282 283 285 287 290 292 292 290 290 289 289 290 290 288 287 286 283 283 283 283 282 282 285 285 285 288 290 289 291 292 291 290 291 290 287 285 285 285
281 282 283 284 287 289 290 292 292 291 291 290 288 287 287 287 284 282 283 282 281 282 284 284 285 287 288 290 292 294 296 296 296 294 291 288 287 287
278 278 281 282 285 287 289 292 295 295 292 290 289 287 287 283 281 282 283 282 282 282 282 283 285 287 289 291 294 296 297 298 298 295 293 291 290 289
278 277 278 280 281 284 287 291 294 296 294 291 291 289 287 285 283 282 284 284 285 284 283 284 285 287 289 292 295 296 296 297 297 297 295 293 292 292
279 280 279 277 279 280 284 289 293 294 295 295 292 291 288 286 285 283 284 286 285 283 283 286 286 287 289 292 293 295 297 298 299 298 297 296 295 295
278 278 278 280 278 278 281 286 291 293 294 294 293 292 291 290 288 286 286 287 286 286 286 286 286 287 289 291 294 297 299 299 298 298 298 297 298 297
275 277 277 280 281 281 282 286 290 292 291 291 293 292 290 291 292 291 290 288 288 289 290 288 287 288 291 292 293 294 296 298 298 298 298 299 298 297
275 275 277 278 280 281 282 285 288 290 291 289 289 290 291 291 291 292 291 290 290 291 291 289 286 286 289 291 292 294 296 297 298 298 298 298 299 299
271 274 277 280 279 279 282 283 285 288 288 287 286 287 290 291 293 292 292 290 291 293 292 289 287 286 289 291 292 292 293 294 297 299 299 298 298 299
271 273 275 278 280 281 282 282 283 285 285 285 285 285 287 289 291 292 292 293 293 292 290 288 287 286 287 289 290 291 291 292 295 297 298 299 299 299
272 273 274 276 278 279 280 282 282 283 284 285 286 287 287 288 290 291 291 293 293 291 289 288 288 288 287 287 288 289 290 291 294 296 297 298 299 300
273 274 274 275 275 276 278 279 280 281 283 284 286 287 286 288 290 291 291 292 292 290 288 287 288 289 290 289 288 288 289 291 293 294 295 297 299 299
273 273 274 275 276 277 277 278 279 281 283 285 286 286 285 287 289 290 290 291 291 289 288 287 288 289 291 291 289 288 290 291 292 292 294 297 299 300
275 274 275 275 276 276 276 277 278 280 282 284 286 287 286 287 288 290 290 291 290 288 287 287 287 288 290 291 291 290 290 290 290 291 292 295 298 300
274 274 274 275 276 276 277 278 279 279 281 283 285 287 287 287 287 288 289 290 290 289 287 287 287 288 289 290 291 292 291 291 291 291 293 295 299 300
274 274 275 275 276 277 278 279 280 281 282 283 284 284 286 286 286 287 288 289 290 289 287 287 288 288 288 289 291 293 292 292 292 292 294 296 298 299
273 274 275 275 276 278 279 280 281 283 283 283 284 284 284 285 286 287 288 287 288 288 287 287 288 288 288 289 291 293 292 292 291 293 295 296 297 297
273 274 274 275 277 278 279 280 280 281 281 281 282 283 284 285 286 287 288 288 288 288 287 287 287 288 290 290 291 291 292 292 292 292 293 294 296 297
273 274 275 275 277 278 280 280 281 281 280 280 280 281 284 285 285 286 287 287 288 289 289 288 287 288 289 290 291 292 293 293 293 293 293 294 295 296
272 273 274 274 275 277 279 281 281 281 281 281 280 280 283 284 284 285 285 286 287 289 288 287 287 289 290 290 291 292 293 293 293 294 295 295 296 296
273 273 274 274 275 277 279 280 281 281 281 281 281 281 282 283 283 283 285 286 288 288 288 287 287 289 291 291 291 293 294 293 293 294 295 296 297 297